Home   Weather   Fort Lauderdale   Past weeks

Flag for USA Past Weather in Fort Lauderdale, Florida, USA — Yesterday and Last 2 Weeks

Now
72 °F

Passing clouds.


Feels Like: 76 °F
Forecast: 71 / 78 °F
Wind: 8 mph from East

Location: Fort Lauderdale / Hollywood International Airport

Current Time: Feb 21, 2017 at 12:43:30 am

Latest Report: Feb 20, 2017 at 11:53 pm


Visibility: 10 mi

Pressure: 30.06 "Hg

Humidity: 61%

Dew Point: 58 °F

Location of Fort LauderdaleLocation

Past Weather in Fort Lauderdale — Graph

°F

Fort Lauderdale Temperature Yesterday

Maximum temperature yesterday: 80 °F (at 10:53 am)
Minimum temperature yesterday: 66 °F (at 5:53 am)
Average temperature yesterday: 74 °F

High & Low Weather Summary for the Past Weeks

 TemperatureHumidityPressure
High88 °F (Feb 19, 2:53 pm)100% (Feb 9, 4:39 am)30.33 "Hg (Feb 9, 4:39 am)
Low58 °F (Feb 17, 2:53 am)42% (Feb 19, 2:53 pm)29.82 "Hg (Feb 15, 3:53 pm)
Average73 °F72%30.06 "Hg
* Reported Feb 5 11:53 pm — Feb 20 11:53 pm, Fort Lauderdale, Weather by CustomWeather, © 2017

Note: Actual official high and low records may vary slightly from our data, if they occured in-between our weather recording intervals... More about our weather records

Advertising

Fort Lauderdale Weather History for the Previous 24 Hours

Scroll right to see more
 ConditionsComfort  
Time TempWeatherWind HumidityBarometerVisibility
11:53 pm
Mon, Feb 20
72 °FPassing clouds.8 mph61%30.06 "Hg10 mi
10:53 pm72 °FClear.8 mph64%30.09 "Hg10 mi
9:53 pm73 °FPassing clouds.9 mph64%30.09 "Hg10 mi
8:53 pm73 °FPassing clouds.9 mph66%30.09 "Hg10 mi
7:53 pm74 °FPassing clouds.10 mph64%30.09 "Hg10 mi
6:53 pm74 °FPassing clouds.9 mph64%30.09 "Hg10 mi
5:53 pm75 °FScattered clouds.13 mph62%30.07 "Hg10 mi
4:53 pm78 °FPassing clouds.7 mph58%30.06 "Hg10 mi
3:53 pm78 °FScattered clouds.14 mph58%30.06 "Hg10 mi
2:53 pm79 °FScattered clouds.15 mph56%30.06 "Hg10 mi
1:53 pm77 °FScattered clouds.15 mph60%30.07 "Hg10 mi
12:53 pm77 °FPartly sunny.10 mph58%30.09 "Hg10 mi
11:53 am80 °FBroken clouds.14 mph56%30.11 "Hg10 mi
10:53 am80 °FPassing clouds.15 mph54%30.13 "Hg10 mi
9:53 am79 °FBroken clouds.8 mph60%30.13 "Hg10 mi
8:53 am75 °FScattered clouds.5 mph74%30.11 "Hg10 mi
7:53 am69 °FScattered clouds.6 mph84%30.09 "Hg10 mi
6:53 am67 °FScattered clouds.No wind87%30.07 "Hg10 mi
5:53 am66 °FPassing clouds.6 mph90%30.06 "Hg10 mi
4:53 am67 °FPassing clouds.5 mph87%30.06 "Hg10 mi
3:53 am68 °FPassing clouds.No wind84%30.05 "Hg10 mi
2:53 am69 °FPassing clouds.3 mph79%30.04 "Hg10 mi
1:53 am72 °FOvercast.3 mph76%30.05 "Hg10 mi
12:53 am72 °FPassing clouds.3 mph76%30.06 "Hg10 mi
Weather by CustomWeather, © 2017

See weather overviewHow to use our weather pages